Time,TemperatureF,DewpointF,PressureIn,WindDirection,WindDirectionDegrees,WindSpeedMPH,WindSpeedGustMPH,Humidity,HourlyPrecipIn,Conditions,Clouds,dailyrainin,SoftwareType,DateUTC
2013-07-19 00:00:00,78.1,74.9,30.08,N/A,-737280,0.0,-999.0,90,0.00,,,0.00,Wunderground v.1.15,2013-07-19 04:00:00,
2013-07-19 00:05:00,78.1,74.9,30.08,N/A,-737280,0.0,-999.0,90,0.00,,,0.00,Wunderground v.1.15,2013-07-19 04:05:00,
2013-07-19 00:10:00,78.1,74.9,30.08,N/A,-737280,0.0,-999.0,90,0.00,,,0.00,Wunderground v.1.15,2013-07-19 04:10:00,
2013-07-19 00:15:00,78.1,74.9,30.08,N/A,-737280,0.0,-999.0,90,0.00,,,0.00,Wunderground v.1.15,2013-07-19 04:15:00,
2013-07-19 00:20:00,78.1,74.9,30.08,N/A,-737280,0.0,-999.0,90,0.00,,,0.00,Wunderground v.1.15,2013-07-19 04:20:00,
2013-07-19 00:25:00,78.1,74.9,30.08,N/A,-737280,0.0,-999.0,90,0.00,,,0.00,Wunderground v.1.15,2013-07-19 04:25:00,
2013-07-19 00:30:00,78.1,74.9,30.08,N/A,-737280,0.0,-999.0,90,0.00,,,0.00,Wunderground v.1.15,2013-07-19 04:30:00,
2013-07-19 00:35:00,78.1,74.9,30.08,N/A,-737280,0.0,-999.0,90,0.00,,,0.00,Wunderground v.1.15,2013-07-19 04:35:00,
2013-07-19 00:40:00,78.1,74.9,30.08,N/A,-737280,0.0,-999.0,90,0.00,,,0.00,Wunderground v.1.15,2013-07-19 04:40:00,
2013-07-19 00:45:00,77.6,74.4,30.08,N/A,-737280,0.0,-999.0,90,0.00,,,0.00,Wunderground v.1.15,2013-07-19 04:45:00,
2013-07-19 00:50:00,77.6,74.4,30.08,N/A,-737280,0.0,-999.0,90,0.00,,,0.00,Wunderground v.1.15,2013-07-19 04:50:00,
2013-07-19 00:55:00,77.6,74.4,30.08,N/A,-737280,0.0,-999.0,90,0.00,,,0.00,Wunderground v.1.15,2013-07-19 04:55:00,
2013-07-19 01:00:00,77.6,74.4,30.08,N/A,-737280,0.0,-999.0,90,0.00,,,0.00,Wunderground v.1.15,2013-07-19 05:00:00,
2013-07-19 01:05:00,77.6,74.4,30.08,N/A,-737280,0.0,-999.0,90,0.00,,,0.00,Wunderground v.1.15,2013-07-19 05:05:00,
2013-07-19 01:10:00,77.6,74.4,30.08,N/A,-737280,0.0,-999.0,90,0.00,,,0.00,Wunderground v.1.15,2013-07-19 05:10:00,
2013-07-19 01:15:00,78.5,75.3,30.07,WSW,248,0.0,-999.0,90,0.00,,,0.00,Wunderground v.1.15,2013-07-19 05:15:00,
2013-07-19 01:20:00,78.5,75.3,30.07,WSW,248,0.0,-999.0,90,0.00,,,0.00,Wunderground v.1.15,2013-07-19 05:20:00,
2013-07-19 01:25:00,78.5,75.3,30.07,WSW,248,0.0,-999.0,90,0.00,,,0.00,Wunderground v.1.15,2013-07-19 05:25:00,
2013-07-19 01:30:00,78.5,75.3,30.07,WSW,248,0.0,-999.0,90,0.00,,,0.00,Wunderground v.1.15,2013-07-19 05:30:00,
2013-07-19 01:35:00,78.5,75.3,30.07,WSW,248,0.0,-999.0,90,0.00,,,0.00,Wunderground v.1.15,2013-07-19 05:35:00,
2013-07-19 01:40:00,78.5,75.3,30.07,WSW,248,0.0,-999.0,90,0.00,,,0.00,Wunderground v.1.15,2013-07-19 05:40:00,
2013-07-19 01:45:00,77.5,74.7,30.07,WSW,248,0.0,-999.0,91,0.00,,,0.00,Wunderground v.1.15,2013-07-19 05:45:00,
2013-07-19 01:50:00,77.5,74.7,30.07,WSW,248,0.0,-999.0,91,0.00,,,0.00,Wunderground v.1.15,2013-07-19 05:50:00,
2013-07-19 01:55:00,77.5,74.7,30.07,WSW,248,0.0,-999.0,91,0.00,,,0.00,Wunderground v.1.15,2013-07-19 05:55:00,
2013-07-19 02:00:00,77.5,74.7,30.07,WSW,248,0.0,-999.0,91,0.00,,,0.00,Wunderground v.1.15,2013-07-19 06:00:00,
2013-07-19 02:05:00,77.5,74.7,30.07,WSW,248,0.0,-999.0,91,0.00,,,0.00,Wunderground v.1.15,2013-07-19 06:05:00,
2013-07-19 02:10:00,77.5,74.7,30.07,WSW,248,0.0,-999.0,91,0.00,,,0.00,Wunderground v.1.15,2013-07-19 06:10:00,
2013-07-19 02:15:00,76.9,74.1,30.06,N/A,-737280,0.0,-999.0,91,0.00,,,0.00,Wunderground v.1.15,2013-07-19 06:15:00,
2013-07-19 02:20:00,76.9,74.1,30.06,N/A,-737280,0.0,-999.0,91,0.00,,,0.00,Wunderground v.1.15,2013-07-19 06:20:00,
2013-07-19 02:25:00,76.9,74.1,30.06,N/A,-737280,0.0,-999.0,91,0.00,,,0.00,Wunderground v.1.15,2013-07-19 06:25:00,
2013-07-19 02:30:00,76.9,74.1,30.06,N/A,-737280,0.0,-999.0,91,0.00,,,0.00,Wunderground v.1.15,2013-07-19 06:30:00,
2013-07-19 02:35:00,76.9,74.1,30.06,N/A,-737280,0.0,-999.0,91,0.00,,,0.00,Wunderground v.1.15,2013-07-19 06:35:00,
2013-07-19 02:40:00,76.9,74.1,30.06,N/A,-737280,0.0,-999.0,91,0.00,,,0.00,Wunderground v.1.15,2013-07-19 06:40:00,
2013-07-19 02:45:00,76.6,74.4,30.06,N/A,-737280,0.0,-999.0,93,0.00,,,0.00,Wunderground v.1.15,2013-07-19 06:45:00,
2013-07-19 02:50:00,76.6,74.4,30.06,N/A,-737280,0.0,-999.0,93,0.00,,,0.00,Wunderground v.1.15,2013-07-19 06:50:00,
2013-07-19 02:55:00,76.6,74.4,30.06,N/A,-737280,0.0,-999.0,93,0.00,,,0.00,Wunderground v.1.15,2013-07-19 06:55:00,
2013-07-19 03:00:00,76.6,74.4,30.06,N/A,-737280,0.0,-999.0,93,0.00,,,0.00,Wunderground v.1.15,2013-07-19 07:00:00,
2013-07-19 03:05:00,76.6,74.4,30.06,N/A,-737280,0.0,-999.0,93,0.00,,,0.00,Wunderground v.1.15,2013-07-19 07:05:00,
2013-07-19 03:10:00,76.6,74.4,30.06,N/A,-737280,0.0,-999.0,93,0.00,,,0.00,Wunderground v.1.15,2013-07-19 07:10:00,
2013-07-19 03:15:00,76.3,74.1,30.05,N/A,-737280,0.0,-999.0,93,0.00,,,0.00,Wunderground v.1.15,2013-07-19 07:15:00,
2013-07-19 03:20:00,76.3,74.1,30.05,N/A,-737280,0.0,-999.0,93,0.00,,,0.00,Wunderground v.1.15,2013-07-19 07:20:00,
2013-07-19 03:25:00,76.3,74.1,30.05,N/A,-737280,0.0,-999.0,93,0.00,,,0.00,Wunderground v.1.15,2013-07-19 07:25:00,
2013-07-19 03:30:00,76.3,74.1,30.05,N/A,-737280,0.0,-999.0,93,0.00,,,0.00,Wunderground v.1.15,2013-07-19 07:30:00,
2013-07-19 03:35:00,76.3,74.1,30.05,N/A,-737280,0.0,-999.0,93,0.00,,,0.00,Wunderground v.1.15,2013-07-19 07:35:00,
2013-07-19 03:40:00,76.3,74.1,30.05,N/A,-737280,0.0,-999.0,93,0.00,,,0.00,Wunderground v.1.15,2013-07-19 07:40:00,
2013-07-19 03:45:00,77.1,74.6,30.05,WSW,248,1.0,-999.0,92,0.00,,,0.00,Wunderground v.1.15,2013-07-19 07:45:00,
2013-07-19 03:50:00,77.1,74.6,30.05,WSW,248,1.0,-999.0,92,0.00,,,0.00,Wunderground v.1.15,2013-07-19 07:50:00,
2013-07-19 03:55:00,77.1,74.6,30.05,WSW,248,1.0,-999.0,92,0.00,,,0.00,Wunderground v.1.15,2013-07-19 07:55:00,
2013-07-19 04:00:00,77.1,74.6,30.05,WSW,248,1.0,-999.0,92,0.00,,,0.00,Wunderground v.1.15,2013-07-19 08:00:00,
2013-07-19 04:05:00,77.1,74.6,30.05,WSW,248,1.0,-999.0,92,0.00,,,0.00,Wunderground v.1.15,2013-07-19 08:05:00,
2013-07-19 04:10:00,77.1,74.6,30.05,WSW,248,1.0,-999.0,92,0.00,,,0.00,Wunderground v.1.15,2013-07-19 08:10:00,
2013-07-19 04:15:00,76.8,74.3,30.04,WSW,248,0.0,-999.0,92,0.00,,,0.00,Wunderground v.1.15,2013-07-19 08:15:00,
2013-07-19 04:20:00,76.8,74.3,30.04,WSW,248,0.0,-999.0,92,0.00,,,0.00,Wunderground v.1.15,2013-07-19 08:20:00,
2013-07-19 04:25:00,76.8,74.3,30.04,WSW,248,0.0,-999.0,92,0.00,,,0.00,Wunderground v.1.15,2013-07-19 08:25:00,
2013-07-19 04:30:00,76.8,74.3,30.04,WSW,248,0.0,-999.0,92,0.00,,,0.00,Wunderground v.1.15,2013-07-19 08:30:00,
2013-07-19 04:35:00,76.8,74.3,30.04,WSW,248,0.0,-999.0,92,0.00,,,0.00,Wunderground v.1.15,2013-07-19 08:35:00,
2013-07-19 04:40:00,76.8,74.3,30.04,WSW,248,0.0,-999.0,92,0.00,,,0.00,Wunderground v.1.15,2013-07-19 08:40:00,
2013-07-19 04:45:00,76.0,73.5,30.04,N/A,-737280,0.0,-999.0,92,0.00,,,0.00,Wunderground v.1.15,2013-07-19 08:45:00,
2013-07-19 04:50:00,76.0,73.5,30.04,N/A,-737280,0.0,-999.0,92,0.00,,,0.00,Wunderground v.1.15,2013-07-19 08:50:00,
2013-07-19 04:55:00,76.0,73.5,30.04,N/A,-737280,0.0,-999.0,92,0.00,,,0.00,Wunderground v.1.15,2013-07-19 08:55:00,
2013-07-19 05:00:00,76.0,73.5,30.04,N/A,-737280,0.0,-999.0,92,0.00,,,0.00,Wunderground v.1.15,2013-07-19 09:00:00,
2013-07-19 05:05:00,76.0,73.5,30.04,N/A,-737280,0.0,-999.0,92,0.00,,,0.00,Wunderground v.1.15,2013-07-19 09:05:00,
2013-07-19 05:10:00,76.0,73.5,30.04,N/A,-737280,0.0,-999.0,92,0.00,,,0.00,Wunderground v.1.15,2013-07-19 09:10:00,
2013-07-19 05:15:00,76.4,73.9,30.04,West,270,1.0,-999.0,92,0.00,,,0.00,Wunderground v.1.15,2013-07-19 09:15:00,
2013-07-19 05:20:00,76.4,73.9,30.04,West,270,1.0,-999.0,92,0.00,,,0.00,Wunderground v.1.15,2013-07-19 09:20:00,
2013-07-19 05:25:00,76.4,73.9,30.04,West,270,1.0,-999.0,92,0.00,,,0.00,Wunderground v.1.15,2013-07-19 09:25:00,
2013-07-19 05:30:00,76.4,73.9,30.04,West,270,1.0,-999.0,92,0.00,,,0.00,Wunderground v.1.15,2013-07-19 09:30:00,
2013-07-19 05:35:00,76.4,73.9,30.04,West,270,1.0,-999.0,92,0.00,,,0.00,Wunderground v.1.15,2013-07-19 09:35:00,
2013-07-19 05:40:00,76.4,73.9,30.04,West,270,1.0,-999.0,92,0.00,,,0.00,Wunderground v.1.15,2013-07-19 09:40:00,
2013-07-19 05:45:00,76.4,73.9,30.04,West,270,1.0,-999.0,92,0.00,,,0.00,Wunderground v.1.15,2013-07-19 09:45:00,
2013-07-19 05:50:00,76.4,73.9,30.04,West,270,1.0,-999.0,92,0.00,,,0.00,Wunderground v.1.15,2013-07-19 09:50:00,
2013-07-19 05:55:00,76.4,73.9,30.04,West,270,1.0,-999.0,92,0.00,,,0.00,Wunderground v.1.15,2013-07-19 09:55:00,
2013-07-19 06:00:00,76.4,73.9,30.04,West,270,1.0,-999.0,92,0.00,,,0.00,Wunderground v.1.15,2013-07-19 10:00:00,
2013-07-19 06:05:00,76.4,73.9,30.04,West,270,1.0,-999.0,92,0.00,,,0.00,Wunderground v.1.15,2013-07-19 10:05:00,
2013-07-19 06:10:00,76.4,73.9,30.04,West,270,1.0,-999.0,92,0.00,,,0.00,Wunderground v.1.15,2013-07-19 10:10:00,
2013-07-19 06:15:00,76.3,73.8,30.04,West,270,1.0,-999.0,92,0.00,,,0.00,Wunderground v.1.15,2013-07-19 10:15:00,
2013-07-19 06:20:00,76.3,73.8,30.04,West,270,1.0,-999.0,92,0.00,,,0.00,Wunderground v.1.15,2013-07-19 10:20:00,
2013-07-19 06:25:00,76.3,73.8,30.04,West,270,1.0,-999.0,92,0.00,,,0.00,Wunderground v.1.15,2013-07-19 10:25:00,
2013-07-19 06:30:00,76.3,73.8,30.04,West,270,1.0,-999.0,92,0.00,,,0.00,Wunderground v.1.15,2013-07-19 10:30:00,
2013-07-19 06:35:00,76.3,73.8,30.04,West,270,1.0,-999.0,92,0.00,,,0.00,Wunderground v.1.15,2013-07-19 10:35:00,
2013-07-19 06:40:00,76.3,73.8,30.04,West,270,1.0,-999.0,92,0.00,,,0.00,Wunderground v.1.15,2013-07-19 10:40:00,
2013-07-19 06:45:00,76.3,74.1,30.05,West,270,0.0,-999.0,93,0.00,,,0.00,Wunderground v.1.15,2013-07-19 10:45:00,
2013-07-19 06:50:00,76.3,74.1,30.05,West,270,0.0,-999.0,93,0.00,,,0.00,Wunderground v.1.15,2013-07-19 10:50:00,
2013-07-19 06:55:00,76.3,74.1,30.05,West,270,0.0,-999.0,93,0.00,,,0.00,Wunderground v.1.15,2013-07-19 10:55:00,
2013-07-19 07:00:00,76.3,74.1,30.05,West,270,0.0,-999.0,93,0.00,,,0.00,Wunderground v.1.15,2013-07-19 11:00:00,
2013-07-19 07:05:00,76.3,74.1,30.05,West,270,0.0,-999.0,93,0.00,,,0.00,Wunderground v.1.15,2013-07-19 11:05:00,
2013-07-19 07:10:00,76.3,74.1,30.05,West,270,0.0,-999.0,93,0.00,,,0.00,Wunderground v.1.15,2013-07-19 11:10:00,
2013-07-19 07:15:00,76.5,74.3,30.06,West,270,1.0,-999.0,93,0.00,,,0.00,Wunderground v.1.15,2013-07-19 11:15:00,
2013-07-19 07:20:00,76.5,74.3,30.06,West,270,1.0,-999.0,93,0.00,,,0.00,Wunderground v.1.15,2013-07-19 11:20:00,
2013-07-19 07:25:00,76.5,74.3,30.06,West,270,1.0,-999.0,93,0.00,,,0.00,Wunderground v.1.15,2013-07-19 11:25:00,
2013-07-19 07:30:00,76.5,74.3,30.06,West,270,1.0,-999.0,93,0.00,,,0.00,Wunderground v.1.15,2013-07-19 11:30:00,
2013-07-19 07:35:00,76.5,74.3,30.06,West,270,1.0,-999.0,93,0.00,,,0.00,Wunderground v.1.15,2013-07-19 11:35:00,
2013-07-19 07:40:00,76.5,74.3,30.06,West,270,1.0,-999.0,93,0.00,,,0.00,Wunderground v.1.15,2013-07-19 11:40:00,
2013-07-19 07:45:00,76.9,74.4,30.07,West,270,2.0,-999.0,92,0.00,,,0.00,Wunderground v.1.15,2013-07-19 11:45:00,
2013-07-19 07:50:00,76.9,74.4,30.07,West,270,2.0,-999.0,92,0.00,,,0.00,Wunderground v.1.15,2013-07-19 11:50:00,
2013-07-19 07:55:00,76.9,74.4,30.07,West,270,2.0,-999.0,92,0.00,,,0.00,Wunderground v.1.15,2013-07-19 11:55:00,
2013-07-19 08:00:00,76.9,74.4,30.07,West,270,2.0,-999.0,92,0.00,,,0.00,Wunderground v.1.15,2013-07-19 12:00:00,
2013-07-19 08:05:00,76.9,74.4,30.07,West,270,2.0,-999.0,92,0.00,,,0.00,Wunderground v.1.15,2013-07-19 12:05:00,
2013-07-19 08:10:00,76.9,74.4,30.07,West,270,2.0,-999.0,92,0.00,,,0.00,Wunderground v.1.15,2013-07-19 12:10:00,
2013-07-19 08:15:00,77.9,75.1,30.07,West,270,1.0,-999.0,91,0.00,,,0.00,Wunderground v.1.15,2013-07-19 12:15:00,
2013-07-19 08:20:00,77.9,75.1,30.07,West,270,1.0,-999.0,91,0.00,,,0.00,Wunderground v.1.15,2013-07-19 12:20:00,
2013-07-19 08:25:00,77.9,75.1,30.07,West,270,1.0,-999.0,91,0.00,,,0.00,Wunderground v.1.15,2013-07-19 12:25:00,
2013-07-19 08:30:00,77.9,75.1,30.07,West,270,1.0,-999.0,91,0.00,,,0.00,Wunderground v.1.15,2013-07-19 12:30:00,
2013-07-19 08:35:00,77.9,75.1,30.07,West,270,1.0,-999.0,91,0.00,,,0.00,Wunderground v.1.15,2013-07-19 12:35:00,
2013-07-19 08:40:00,77.9,75.1,30.07,West,270,1.0,-999.0,91,0.00,,,0.00,Wunderground v.1.15,2013-07-19 12:40:00,
2013-07-19 08:45:00,78.9,75.7,30.08,WNW,293,1.0,-999.0,90,0.00,,,0.00,Wunderground v.1.15,2013-07-19 12:45:00,
2013-07-19 08:50:00,78.9,75.7,30.08,WNW,293,1.0,-999.0,90,0.00,,,0.00,Wunderground v.1.15,2013-07-19 12:50:00,
2013-07-19 08:55:00,78.9,75.7,30.08,WNW,293,1.0,-999.0,90,0.00,,,0.00,Wunderground v.1.15,2013-07-19 12:55:00,
2013-07-19 09:00:00,78.9,75.7,30.08,WNW,293,1.0,-999.0,90,0.00,,,0.00,Wunderground v.1.15,2013-07-19 13:00:00,
2013-07-19 09:15:00,79.4,75.9,30.08,West,263,1.0,1.0,89,0.00,,,0.00,Wunderground v.1.15,2013-07-19 13:15:00,
2013-07-19 09:20:00,79.6,76.1,30.08,West,259,2.0,2.0,89,0.00,,,0.00,Wunderground v.1.15,2013-07-19 13:20:00,
2013-07-19 09:25:00,79.8,76.3,30.08,West,259,2.0,2.0,89,0.00,,,0.00,Wunderground v.1.15,2013-07-19 13:25:00,
2013-07-19 09:30:00,80.3,76.4,30.08,West,259,0.0,2.0,88,0.00,,,0.00,Wunderground v.1.15,2013-07-19 13:30:00,
2013-07-19 09:35:00,80.6,76.4,30.08,West,265,1.0,2.0,87,0.00,,,0.00,Wunderground v.1.15,2013-07-19 13:35:00,
2013-07-19 09:40:00,80.5,75.9,30.08,WSW,240,2.0,3.0,86,0.00,,,0.00,Wunderground v.1.15,2013-07-19 13:40:00,
2013-07-19 09:45:00,80.8,76.6,30.08,SSW,212,2.0,2.0,87,0.00,,,0.00,Wunderground v.1.15,2013-07-19 13:45:00,
2013-07-19 09:50:00,81.2,76.6,30.08,West,266,1.0,3.0,86,0.00,,,0.00,Wunderground v.1.15,2013-07-19 13:50:00,
2013-07-19 09:55:00,81.2,76.3,30.08,WSW,246,2.0,2.0,85,0.00,,,0.00,Wunderground v.1.15,2013-07-19 13:55:00,
2013-07-19 10:00:00,81.5,76.9,30.08,WSW,257,2.0,4.0,86,0.00,,,0.00,Wunderground v.1.15,2013-07-19 14:00:00,
2013-07-19 10:05:00,81.5,76.9,30.08,WNW,297,2.0,4.0,86,0.00,,,0.00,Wunderground v.1.15,2013-07-19 14:05:00,
2013-07-19 10:10:00,81.9,77.3,30.08,SSW,196,2.0,2.0,86,0.00,,,0.00,Wunderground v.1.15,2013-07-19 14:10:00,
2013-07-19 10:15:00,82.3,77.3,30.08,WSW,255,0.0,4.0,85,0.00,,,0.00,Wunderground v.1.15,2013-07-19 14:15:00,
2013-07-19 10:20:00,82.5,77.2,30.07,WNW,288,1.0,4.0,84,0.00,,,0.00,Wunderground v.1.15,2013-07-19 14:20:00,
2013-07-19 10:25:00,82.6,77.3,30.07,WNW,284,2.0,4.0,84,0.00,,,0.00,Wunderground v.1.15,2013-07-19 14:25:00,
2013-07-19 10:30:00,82.9,77.2,30.08,WNW,294,2.0,2.0,83,0.00,,,0.00,Wunderground v.1.15,2013-07-19 14:30:00,
2013-07-19 10:35:00,83.2,77.9,30.08,WSW,250,2.0,3.0,84,0.00,,,0.00,Wunderground v.1.15,2013-07-19 14:35:00,
2013-07-19 10:40:00,83.4,77.3,30.08,West,278,2.0,2.0,82,0.00,,,0.00,Wunderground v.1.15,2013-07-19 14:40:00,
2013-07-19 10:45:00,83.2,77.9,30.07,West,271,2.0,4.0,84,0.00,,,0.00,Wunderground v.1.15,2013-07-19 14:45:00,
2013-07-19 10:50:00,83.6,77.5,30.07,West,259,2.0,2.0,82,0.00,,,0.00,Wunderground v.1.15,2013-07-19 14:50:00,
2013-07-19 10:55:00,83.9,78.2,30.08,West,278,2.0,4.0,83,0.00,,,0.00,Wunderground v.1.15,2013-07-19 14:55:00,
2013-07-19 11:00:00,83.7,77.2,30.07,West,263,3.0,4.0,81,0.00,,,0.00,Wunderground v.1.15,2013-07-19 15:00:00,
2013-07-19 11:05:00,83.9,77.4,30.07,NW,307,3.0,4.0,81,0.00,,,0.00,Wunderground v.1.15,2013-07-19 15:05:00,
2013-07-19 11:10:00,84.1,76.9,30.07,South,182,3.0,3.0,79,0.00,,,0.00,Wunderground v.1.15,2013-07-19 15:10:00,
2013-07-19 11:15:00,84.3,77.8,30.07,SSE,152,3.0,4.0,81,0.00,,,0.00,Wunderground v.1.15,2013-07-19 15:15:00,
2013-07-19 11:20:00,84.7,77.8,30.07,WSW,257,3.0,3.0,80,0.00,,,0.00,Wunderground v.1.15,2013-07-19 15:20:00,
2013-07-19 11:25:00,85.3,78.4,30.07,WSW,244,2.0,4.0,80,0.00,,,0.00,Wunderground v.1.15,2013-07-19 15:25:00,
2013-07-19 11:30:00,85.2,77.9,30.07,West,267,3.0,3.0,79,0.00,,,0.00,Wunderground v.1.15,2013-07-19 15:30:00,
2013-07-19 11:35:00,85.4,77.8,30.07,WSW,253,3.0,4.0,78,0.00,,,0.00,Wunderground v.1.15,2013-07-19 15:35:00,
2013-07-19 11:40:00,85.7,78.0,30.07,SW,228,2.0,4.0,78,0.00,,,0.00,Wunderground v.1.15,2013-07-19 15:40:00,
2013-07-19 11:50:00,85.4,77.0,30.07,SW,226,3.0,3.0,76,0.00,,,0.00,Wunderground v.1.15,2013-07-19 15:50:00,
2013-07-19 11:55:00,85.7,77.3,30.07,West,269,2.0,4.0,76,0.00,,,0.00,Wunderground v.1.15,2013-07-19 15:55:00,
2013-07-19 12:00:00,86.0,77.5,30.07,WSW,243,2.0,2.0,76,0.00,,,0.00,Wunderground v.1.15,2013-07-19 16:00:00,
2013-07-19 12:05:00,86.4,78.3,30.07,WNW,290,1.0,3.0,77,0.00,,,0.00,Wunderground v.1.15,2013-07-19 16:05:00,
2013-07-19 12:10:00,86.5,76.8,30.07,West,270,2.0,4.0,73,0.00,,,0.00,Wunderground v.1.15,2013-07-19 16:10:00,
2013-07-19 12:15:00,86.3,77.0,30.07,West,271,3.0,4.0,74,0.00,,,0.00,Wunderground v.1.15,2013-07-19 16:15:00,
2013-07-19 12:20:00,86.5,76.8,30.06,WSW,242,3.0,3.0,73,0.00,,,0.00,Wunderground v.1.15,2013-07-19 16:20:00,
2013-07-19 12:25:00,86.7,77.4,30.07,North,360,2.0,4.0,74,0.00,,,0.00,Wunderground v.1.15,2013-07-19 16:25:00,
2013-07-19 12:30:00,86.2,75.3,30.06,SW,216,2.0,2.0,70,0.00,,,0.00,Wunderground v.1.15,2013-07-19 16:30:00,
2013-07-19 12:35:00,86.1,77.2,30.06,WNW,293,2.0,4.0,75,0.00,,,0.00,Wunderground v.1.15,2013-07-19 16:35:00,
2013-07-19 12:40:00,86.5,77.2,30.06,NW,311,3.0,4.0,74,0.00,,,0.00,Wunderground v.1.15,2013-07-19 16:40:00,
2013-07-19 12:45:00,86.7,76.6,30.06,NW,311,3.0,4.0,72,0.00,,,0.00,Wunderground v.1.15,2013-07-19 16:45:00,
2013-07-19 12:50:00,86.7,77.0,30.06,WNW,282,2.0,4.0,73,0.00,,,0.00,Wunderground v.1.15,2013-07-19 16:50:00,
2013-07-19 12:55:00,86.7,76.6,30.06,WSW,257,2.0,6.0,72,0.00,,,0.00,Wunderground v.1.15,2013-07-19 16:55:00,
2013-07-19 13:00:00,86.4,76.7,30.06,West,273,4.0,4.0,73,0.00,,,0.00,Wunderground v.1.15,2013-07-19 17:00:00,
2013-07-19 13:05:00,86.8,76.3,30.06,WSW,252,4.0,12.0,71,0.00,,,0.00,Wunderground v.1.15,2013-07-19 17:05:00,
2013-07-19 13:10:00,87.1,76.5,30.06,SW,228,3.0,3.0,71,0.00,,,0.00,Wunderground v.1.15,2013-07-19 17:10:00,
2013-07-19 13:15:00,87.6,77.5,30.05,WSW,254,2.0,4.0,72,0.00,,,0.00,Wunderground v.1.15,2013-07-19 17:15:00,
2013-07-19 13:20:00,88.1,76.6,30.05,WNW,283,2.0,6.0,69,0.00,,,0.00,Wunderground v.1.15,2013-07-19 17:20:00,
2013-07-19 13:25:00,88.3,76.4,30.05,NW,308,3.0,6.0,68,0.00,,,0.00,Wunderground v.1.15,2013-07-19 17:25:00,
2013-07-19 13:30:00,88.2,77.6,30.05,WNW,288,2.0,2.0,71,0.00,,,0.00,Wunderground v.1.15,2013-07-19 17:30:00,
2013-07-19 13:35:00,87.5,76.5,30.04,WNW,290,2.0,4.0,70,0.00,,,0.00,Wunderground v.1.15,2013-07-19 17:35:00,
2013-07-19 13:40:00,87.2,75.8,30.04,West,279,1.0,5.0,69,0.00,,,0.00,Wunderground v.1.15,2013-07-19 17:40:00,
2013-07-19 13:45:00,87.7,77.5,30.04,West,266,2.0,5.0,72,0.00,,,0.00,Wunderground v.1.15,2013-07-19 17:45:00,
2013-07-19 13:50:00,88.2,77.6,30.04,West,269,2.0,4.0,71,0.00,,,0.00,Wunderground v.1.15,2013-07-19 17:50:00,
2013-07-19 13:55:00,88.2,77.6,30.03,West,267,2.0,4.0,71,0.00,,,0.00,Wunderground v.1.15,2013-07-19 17:55:00,
2013-07-19 14:00:00,88.3,77.3,30.04,West,267,3.0,3.0,70,0.00,,,0.00,Wunderground v.1.15,2013-07-19 18:00:00,
2013-07-19 14:05:00,88.2,77.2,30.03,WNW,288,1.0,4.0,70,0.00,,,0.00,Wunderground v.1.15,2013-07-19 18:05:00,
2013-07-19 14:10:00,87.8,77.2,30.03,SSW,209,1.0,1.0,71,0.00,,,0.00,Wunderground v.1.15,2013-07-19 18:10:00,
2013-07-19 14:15:00,87.1,76.1,30.03,West,279,1.0,4.0,70,0.00,,,0.00,Wunderground v.1.15,2013-07-19 18:15:00,
2013-07-19 14:20:00,86.9,75.9,30.03,ESE,113,1.0,1.0,70,0.00,,,0.00,Wunderground v.1.15,2013-07-19 18:20:00,
2013-07-19 14:25:00,87.5,77.4,30.03,SSE,165,1.0,4.0,72,0.00,,,0.00,Wunderground v.1.15,2013-07-19 18:25:00,
2013-07-19 14:30:00,87.8,76.8,30.03,WSW,238,1.0,1.0,70,0.00,,,0.00,Wunderground v.1.15,2013-07-19 18:30:00,
2013-07-19 14:35:00,88.7,78.1,30.02,West,273,1.0,3.0,71,0.00,,,0.00,Wunderground v.1.15,2013-07-19 18:35:00,
2013-07-19 14:40:00,89.0,77.1,30.02,WNW,301,1.0,4.0,68,0.00,,,0.00,Wunderground v.1.15,2013-07-19 18:40:00,
2013-07-19 14:45:00,89.0,77.1,30.01,WNW,300,2.0,4.0,68,0.00,,,0.00,Wunderground v.1.15,2013-07-19 18:45:00,
2013-07-19 14:50:00,88.9,77.4,30.01,WSW,241,2.0,4.0,69,0.00,,,0.00,Wunderground v.1.15,2013-07-19 18:50:00,
2013-07-19 14:55:00,89.1,78.0,30.01,WNW,282,2.0,4.0,70,0.00,,,0.00,Wunderground v.1.15,2013-07-19 18:55:00,
2013-07-19 15:00:00,89.2,77.7,30.01,WNW,282,3.0,4.0,69,0.00,,,0.00,Wunderground v.1.15,2013-07-19 19:00:00,
2013-07-19 15:05:00,89.5,77.1,30.00,WNW,282,2.0,4.0,67,0.00,,,0.00,Wunderground v.1.15,2013-07-19 19:05:00,
2013-07-19 15:10:00,89.8,77.4,30.01,WNW,289,1.0,1.0,67,0.00,,,0.00,Wunderground v.1.15,2013-07-19 19:10:00,
2013-07-19 15:20:00,89.9,76.1,30.00,West,266,2.0,2.0,64,0.00,,,0.00,Wunderground v.1.15,2013-07-19 19:20:00,
2013-07-19 15:25:00,89.9,77.9,30.00,WNW,282,3.0,4.0,68,0.00,,,0.00,Wunderground v.1.15,2013-07-19 19:25:00,
2013-07-19 15:30:00,90.0,78.0,30.00,West,261,2.0,2.0,68,0.00,,,0.00,Wunderground v.1.15,2013-07-19 19:30:00,
2013-07-19 15:35:00,90.5,78.0,29.99,WNW,283,1.0,3.0,67,0.00,,,0.00,Wunderground v.1.15,2013-07-19 19:35:00,
2013-07-19 15:40:00,90.5,77.6,29.99,SSW,192,1.0,1.0,66,0.00,,,0.00,Wunderground v.1.15,2013-07-19 19:40:00,
2013-07-19 15:45:00,90.4,75.6,29.99,West,269,2.0,2.0,62,0.00,,,0.00,Wunderground v.1.15,2013-07-19 19:45:00,
2013-07-19 15:50:00,90.1,77.7,29.99,West,273,2.0,2.0,67,0.00,,,0.00,Wunderground v.1.15,2013-07-19 19:50:00,
2013-07-19 15:55:00,90.4,76.1,29.98,SE,140,2.0,4.0,63,0.00,,,0.00,Wunderground v.1.15,2013-07-19 19:55:00,
2013-07-19 16:00:00,90.4,77.5,29.98,WSW,253,2.0,2.0,66,0.00,,,0.00,Wunderground v.1.15,2013-07-19 20:00:00,
2013-07-19 16:05:00,90.6,77.7,29.98,NW,311,2.0,4.0,66,0.00,,,0.00,Wunderground v.1.15,2013-07-19 20:05:00,
2013-07-19 16:10:00,90.8,77.9,29.98,West,278,2.0,4.0,66,0.00,,,0.00,Wunderground v.1.15,2013-07-19 20:10:00,
2013-07-19 16:15:00,90.4,77.9,29.98,WNW,302,2.0,4.0,67,0.00,,,0.00,Wunderground v.1.15,2013-07-19 20:15:00,
2013-07-19 16:20:00,90.1,76.7,29.97,SSW,194,2.0,2.0,65,0.00,,,0.00,Wunderground v.1.15,2013-07-19 20:20:00,
2013-07-19 16:25:00,90.1,76.3,29.98,West,279,2.0,4.0,64,0.00,,,0.00,Wunderground v.1.15,2013-07-19 20:25:00,
2013-07-19 16:30:00,90.3,76.9,29.97,WNW,290,3.0,3.0,65,0.00,,,0.00,Wunderground v.1.15,2013-07-19 20:30:00,
2013-07-19 16:35:00,90.3,77.4,29.97,SW,229,3.0,4.0,66,0.00,,,0.00,Wunderground v.1.15,2013-07-19 20:35:00,
2013-07-19 16:40:00,90.0,77.1,29.97,West,267,2.0,2.0,66,0.00,,,0.00,Wunderground v.1.15,2013-07-19 20:40:00,
2013-07-19 16:45:00,89.4,76.1,29.97,West,270,2.0,4.0,65,0.00,,,0.00,Wunderground v.1.15,2013-07-19 20:45:00,
2013-07-19 16:50:00,89.8,77.4,29.97,West,275,2.0,4.0,67,0.00,,,0.00,Wunderground v.1.15,2013-07-19 20:50:00,
2013-07-19 16:55:00,89.8,76.9,29.97,West,259,2.0,4.0,66,0.00,,,0.00,Wunderground v.1.15,2013-07-19 20:55:00,
2013-07-19 17:00:00,89.6,75.8,29.98,WNW,284,2.0,4.0,64,0.00,,,0.00,Wunderground v.1.15,2013-07-19 21:00:00,
2013-07-19 17:05:00,89.0,76.2,29.98,WNW,291,2.0,4.0,66,0.00,,,0.00,Wunderground v.1.15,2013-07-19 21:05:00,
2013-07-19 17:10:00,88.7,76.8,29.97,WNW,290,3.0,3.0,68,0.00,,,0.00,Wunderground v.1.15,2013-07-19 21:10:00,
2013-07-19 17:15:00,88.5,76.1,29.97,WNW,282,2.0,4.0,67,0.00,,,0.00,Wunderground v.1.15,2013-07-19 21:15:00,
2013-07-19 17:20:00,88.2,76.3,29.97,West,279,2.0,2.0,68,0.00,,,0.00,Wunderground v.1.15,2013-07-19 21:20:00,
2013-07-19 17:25:00,88.4,75.6,29.98,West,265,2.0,3.0,66,0.00,,,0.00,Wunderground v.1.15,2013-07-19 21:25:00,
2013-07-19 17:30:00,88.3,76.8,29.98,West,268,2.0,2.0,69,0.00,,,0.00,Wunderground v.1.15,2013-07-19 21:30:00,
2013-07-19 17:35:00,88.8,76.9,29.97,West,281,2.0,3.0,68,0.00,,,0.00,Wunderground v.1.15,2013-07-19 21:35:00,
2013-07-19 17:40:00,89.4,77.4,29.97,West,261,2.0,2.0,68,0.00,,,0.00,Wunderground v.1.15,2013-07-19 21:40:00,
2013-07-19 17:45:00,89.9,77.5,29.97,WNW,295,2.0,5.0,67,0.00,,,0.00,Wunderground v.1.15,2013-07-19 21:45:00,
2013-07-19 17:50:00,89.4,76.5,29.97,WNW,284,2.0,3.0,66,0.00,,,0.00,Wunderground v.1.15,2013-07-19 21:50:00,
2013-07-19 17:55:00,89.2,78.1,29.96,SW,227,3.0,3.0,70,0.00,,,0.00,Wunderground v.1.15,2013-07-19 21:55:00,
2013-07-19 18:00:00,89.1,77.2,29.96,West,269,3.0,3.0,68,0.00,,,0.00,Wunderground v.1.15,2013-07-19 22:00:00,
2013-07-19 18:05:00,89.2,75.9,29.96,SSW,204,3.0,9.0,65,0.00,,,0.00,Wunderground v.1.15,2013-07-19 22:05:00,
2013-07-19 18:10:00,89.2,75.4,29.96,West,263,3.0,9.0,64,0.00,,,0.00,Wunderground v.1.15,2013-07-19 22:10:00,
2013-07-19 18:15:00,88.9,75.1,29.96,WSW,242,4.0,9.0,64,0.00,,,0.00,Wunderground v.1.15,2013-07-19 22:15:00,
2013-07-19 18:20:00,89.1,76.3,29.96,West,278,4.0,4.0,66,0.00,,,0.00,Wunderground v.1.15,2013-07-19 22:20:00,
2013-07-19 18:25:00,89.2,75.9,29.96,West,264,3.0,5.0,65,0.00,,,0.00,Wunderground v.1.15,2013-07-19 22:25:00,
2013-07-19 18:30:00,88.9,75.6,29.96,West,270,4.0,9.0,65,0.00,,,0.00,Wunderground v.1.15,2013-07-19 22:30:00,
2013-07-19 18:35:00,88.9,75.6,29.96,West,265,3.0,9.0,65,0.00,,,0.00,Wunderground v.1.15,2013-07-19 22:35:00,
2013-07-19 18:40:00,89.0,75.7,29.96,SSE,153,3.0,3.0,65,0.00,,,0.00,Wunderground v.1.15,2013-07-19 22:40:00,
2013-07-19 18:45:00,88.8,75.5,29.97,WSW,252,3.0,4.0,65,0.00,,,0.00,Wunderground v.1.15,2013-07-19 22:45:00,
2013-07-19 18:50:00,88.4,76.0,29.97,West,271,3.0,9.0,67,0.00,,,0.00,Wunderground v.1.15,2013-07-19 22:50:00,
2013-07-19 18:55:00,88.1,75.3,29.97,West,267,3.0,9.0,66,0.00,,,0.00,Wunderground v.1.15,2013-07-19 22:55:00,
2013-07-19 19:00:00,87.9,75.6,29.96,WSW,254,2.0,9.0,67,0.00,,,0.00,Wunderground v.1.15,2013-07-19 23:00:00,
2013-07-19 19:05:00,87.7,75.8,29.96,WNW,286,2.0,9.0,68,0.00,,,0.00,Wunderground v.1.15,2013-07-19 23:05:00,
2013-07-19 19:10:00,87.7,75.4,29.97,WSW,238,2.0,2.0,67,0.00,,,0.00,Wunderground v.1.15,2013-07-19 23:10:00,
2013-07-19 19:15:00,87.4,75.1,29.97,WSW,257,2.0,3.0,67,0.00,,,0.00,Wunderground v.1.15,2013-07-19 23:15:00,
2013-07-19 19:20:00,87.3,76.3,29.97,West,280,3.0,3.0,70,0.00,,,0.00,Wunderground v.1.15,2013-07-19 23:20:00,
2013-07-19 19:25:00,87.1,76.1,29.97,West,276,2.0,4.0,70,0.00,,,0.00,Wunderground v.1.15,2013-07-19 23:25:00,
2013-07-19 19:30:00,86.7,75.7,29.96,WNW,284,2.0,9.0,70,0.00,,,0.00,Wunderground v.1.15,2013-07-19 23:30:00,
2013-07-19 19:35:00,86.1,75.2,29.96,NW,306,2.0,9.0,70,0.00,,,0.00,Wunderground v.1.15,2013-07-19 23:35:00,
2013-07-19 19:40:00,85.8,75.3,29.96,West,276,2.0,9.0,71,0.00,,,0.00,Wunderground v.1.15,2013-07-19 23:40:00,
2013-07-19 19:45:00,85.6,75.5,29.96,WNW,285,2.0,9.0,72,0.00,,,0.00,Wunderground v.1.15,2013-07-19 23:45:00,
2013-07-19 19:50:00,85.4,75.3,29.97,WNW,287,2.0,9.0,72,0.00,,,0.00,Wunderground v.1.15,2013-07-19 23:50:00,
2013-07-19 19:55:00,85.2,75.6,29.97,West,281,2.0,9.0,73,0.00,,,0.00,Wunderground v.1.15,2013-07-19 23:55:00,
2013-07-19 20:00:00,84.9,75.3,29.97,WNW,291,2.0,9.0,73,0.00,,,0.00,Wunderground v.1.15,2013-07-20 00:00:00,
2013-07-19 20:05:00,84.8,75.6,29.96,West,269,2.0,9.0,74,0.00,,,0.00,Wunderground v.1.15,2013-07-20 00:05:00,
2013-07-19 20:10:00,84.7,75.9,29.96,West,276,2.0,2.0,75,0.00,,,0.00,Wunderground v.1.15,2013-07-20 00:10:00,
2013-07-19 20:15:00,84.5,75.7,29.96,West,274,1.0,9.0,75,0.00,,,0.00,Wunderground v.1.15,2013-07-20 00:15:00,
2013-07-19 20:20:00,84.5,75.3,29.97,West,278,2.0,9.0,74,0.00,,,0.00,Wunderground v.1.15,2013-07-20 00:20:00,
2013-07-19 20:25:00,84.4,75.6,29.97,West,273,2.0,9.0,75,0.00,,,0.00,Wunderground v.1.15,2013-07-20 00:25:00,
2013-07-19 20:30:00,84.3,75.1,29.96,WNW,287,1.0,9.0,74,0.00,,,0.00,Wunderground v.1.15,2013-07-20 00:30:00,
2013-07-19 20:35:00,84.1,75.3,29.96,West,274,2.0,9.0,75,0.00,,,0.00,Wunderground v.1.15,2013-07-20 00:35:00,
2013-07-19 20:40:00,84.0,75.6,29.96,WNW,289,2.0,2.0,76,0.00,,,0.00,Wunderground v.1.15,2013-07-20 00:40:00,
2013-07-19 20:45:00,83.9,75.9,29.97,West,268,2.0,4.0,77,0.00,,,0.00,Wunderground v.1.15,2013-07-20 00:45:00,
2013-07-19 20:50:00,83.8,75.4,29.97,West,279,3.0,9.0,76,0.00,,,0.00,Wunderground v.1.15,2013-07-20 00:50:00,
2013-07-19 20:55:00,83.6,75.2,29.97,WNW,297,2.0,9.0,76,0.00,,,0.00,Wunderground v.1.15,2013-07-20 00:55:00,
2013-07-19 21:00:00,83.6,75.2,29.96,SSW,207,1.0,9.0,76,0.00,,,0.00,Wunderground v.1.15,2013-07-20 01:00:00,
2013-07-19 21:05:00,83.4,75.4,29.96,West,277,1.0,9.0,77,0.00,,,0.00,Wunderground v.1.15,2013-07-20 01:05:00,
2013-07-19 21:10:00,83.3,75.7,29.96,West,269,2.0,9.0,78,0.00,,,0.00,Wunderground v.1.15,2013-07-20 01:10:00,
2013-07-19 21:15:00,83.2,75.6,29.96,West,271,3.0,9.0,78,0.00,,,0.00,Wunderground v.1.15,2013-07-20 01:15:00,
2013-07-19 21:20:00,83.1,75.5,29.97,West,262,2.0,2.0,78,0.00,,,0.00,Wunderground v.1.15,2013-07-20 01:20:00,
2013-07-19 21:25:00,83.0,75.4,29.97,WNW,284,2.0,9.0,78,0.00,,,0.00,Wunderground v.1.15,2013-07-20 01:25:00,
2013-07-19 21:30:00,82.9,75.7,29.97,West,270,2.0,2.0,79,0.00,,,0.00,Wunderground v.1.15,2013-07-20 01:30:00,
2013-07-19 21:35:00,82.8,75.6,29.98,West,270,1.0,9.0,79,0.00,,,0.00,Wunderground v.1.15,2013-07-20 01:35:00,
2013-07-19 21:40:00,82.7,75.9,29.98,West,270,1.0,9.0,80,0.00,,,0.00,Wunderground v.1.15,2013-07-20 01:40:00,
2013-07-19 21:45:00,82.6,75.8,29.98,West,270,1.0,9.0,80,0.00,,,0.00,Wunderground v.1.15,2013-07-20 01:45:00,
2013-07-19 21:50:00,82.4,75.6,29.99,West,269,2.0,2.0,80,0.00,,,0.00,Wunderground v.1.15,2013-07-20 01:50:00,
2013-07-19 21:55:00,82.3,75.5,29.99,West,269,2.0,9.0,80,0.00,,,0.00,Wunderground v.1.15,2013-07-20 01:55:00,
2013-07-19 22:00:00,82.2,75.8,29.99,WNW,288,1.0,9.0,81,0.00,,,0.00,Wunderground v.1.15,2013-07-20 02:00:00,
2013-07-19 22:10:00,82.1,75.3,30.00,West,269,1.0,9.0,80,0.00,,,0.00,Wunderground v.1.15,2013-07-20 02:10:00,
2013-07-19 22:15:00,82.0,75.6,30.00,West,269,2.0,9.0,81,0.00,,,0.00,Wunderground v.1.15,2013-07-20 02:15:00,
2013-07-19 22:20:00,81.9,75.5,30.00,West,269,2.0,9.0,81,0.00,,,0.00,Wunderground v.1.15,2013-07-20 02:20:00,
2013-07-19 22:25:00,81.9,75.5,30.01,West,271,2.0,9.0,81,0.00,,,0.00,Wunderground v.1.15,2013-07-20 02:25:00,
2013-07-19 22:30:00,81.8,75.4,30.01,West,271,1.0,1.0,81,0.00,,,0.00,Wunderground v.1.15,2013-07-20 02:30:00,
2013-07-19 22:35:00,81.7,75.3,30.01,West,271,1.0,3.0,81,0.00,,,0.00,Wunderground v.1.15,2013-07-20 02:35:00,
2013-07-19 22:40:00,81.7,75.7,30.01,West,271,2.0,9.0,82,0.00,,,0.00,Wunderground v.1.15,2013-07-20 02:40:00,
2013-07-19 22:45:00,81.6,75.2,30.01,West,271,2.0,9.0,81,0.00,,,0.00,Wunderground v.1.15,2013-07-20 02:45:00,
2013-07-19 22:50:00,81.4,75.4,30.01,West,271,2.0,2.0,82,0.00,,,0.00,Wunderground v.1.15,2013-07-20 02:50:00,
2013-07-19 22:55:00,81.2,75.5,30.01,West,271,2.0,9.0,83,0.00,,,0.00,Wunderground v.1.15,2013-07-20 02:55:00,
2013-07-19 23:00:00,81.1,75.1,30.01,West,275,2.0,2.0,82,0.00,,,0.00,Wunderground v.1.15,2013-07-20 03:00:00,
2013-07-19 23:05:00,81.1,75.4,30.01,West,275,2.0,9.0,83,0.00,,,0.00,Wunderground v.1.15,2013-07-20 03:05:00,
2013-07-19 23:10:00,81.1,75.1,30.01,West,270,2.0,-999.0,82,0.00,,,0.00,Wunderground v.1.15,2013-07-20 03:10:00,
2013-07-19 23:15:00,80.9,75.2,30.00,WNW,293,1.0,-999.0,83,0.00,,,0.00,Wunderground v.1.15,2013-07-20 03:15:00,
2013-07-19 23:20:00,80.9,75.2,30.00,WNW,293,1.0,-999.0,83,0.00,,,0.00,Wunderground v.1.15,2013-07-20 03:20:00,
2013-07-19 23:25:00,80.9,75.2,30.00,WNW,293,1.0,-999.0,83,0.00,,,0.00,Wunderground v.1.15,2013-07-20 03:25:00,
2013-07-19 23:30:00,80.9,75.2,30.00,WNW,293,1.0,-999.0,83,0.00,,,0.00,Wunderground v.1.15,2013-07-20 03:30:00,
2013-07-19 23:35:00,80.9,75.2,30.00,WNW,293,1.0,-999.0,83,0.00,,,0.00,Wunderground v.1.15,2013-07-20 03:35:00,
2013-07-19 23:40:00,80.9,75.2,30.00,WNW,293,1.0,-999.0,83,0.00,,,0.00,Wunderground v.1.15,2013-07-20 03:40:00,
2013-07-19 23:45:00,81.2,75.2,30.00,West,270,1.0,-999.0,82,0.00,,,0.00,Wunderground v.1.15,2013-07-20 03:45:00,
2013-07-19 23:50:00,81.2,75.2,30.00,West,270,1.0,-999.0,82,0.00,,,0.00,Wunderground v.1.15,2013-07-20 03:50:00,
2013-07-19 23:55:00,81.2,75.2,30.00,West,270,1.0,-999.0,82,0.00,,,0.00,Wunderground v.1.15,2013-07-20 03:55:00,